TimePST,TemperatureF,Dew PointF,Humidity,Sea Level PressureIn,VisibilityMPH,Wind Direction,Wind SpeedMPH,Gust SpeedMPH,PrecipitationIn,Events,Conditions,WindDirDegrees,DateUTC
12:15 AM,46.4,46.4,100,30.14,5.0,Calm,Calm,-,N/A,,Clear,0,2012-12-10 08:15:00
12:35 AM,46.4,46.4,100,30.14,5.0,Calm,Calm,-,N/A,,Clear,0,2012-12-10 08:35:00
12:55 AM,46.4,46.4,100,30.13,5.0,Calm,Calm,-,N/A,,Clear,0,2012-12-10 08:55:00
1:15 AM,44.6,44.6,100,30.13,4.0,Calm,Calm,-,N/A,,Clear,0,2012-12-10 09:15:00
1:55 AM,44.6,44.6,100,30.13,4.0,Calm,Calm,-,N/A,,Clear,0,2012-12-10 09:55:00
2:15 AM,44.6,44.6,100,30.13,5.0,NNW,3.5,-,N/A,,Clear,340,2012-12-10 10:15:00
2:35 AM,42.8,42.8,100,30.13,5.0,Calm,Calm,-,N/A,,Clear,0,2012-12-10 10:35:00
2:55 AM,42.8,42.8,100,30.13,3.0,Calm,Calm,-,N/A,,Clear,0,2012-12-10 10:55:00
3:15 AM,42.8,42.8,100,30.12,3.0,Calm,Calm,-,N/A,,Clear,0,2012-12-10 11:15:00
3:35 AM,42.8,42.8,100,30.12,4.0,Calm,Calm,-,N/A,,Clear,0,2012-12-10 11:35:00
3:55 AM,42.8,42.8,100,30.11,4.0,Calm,Calm,-,N/A,,Clear,0,2012-12-10 11:55:00
4:15 AM,42.8,42.8,100,30.11,4.0,Calm,Calm,-,N/A,,Clear,0,2012-12-10 12:15:00
4:35 AM,42.8,42.8,100,30.11,4.0,Calm,Calm,-,N/A,,Clear,0,2012-12-10 12:35:00
4:55 AM,42.8,42.8,100,30.12,5.0,Calm,Calm,-,N/A,,Clear,0,2012-12-10 12:55:00
5:15 AM,41.0,41.0,100,30.12,5.0,Calm,Calm,-,N/A,,Clear,0,2012-12-10 13:15:00
6:47 AM,39.2,39.2,100,30.13,15.0,Calm,Calm,-,N/A,,Clear,0,2012-12-10 14:47:00
8:55 AM,51.8,42.8,71,30.14,25.0,Calm,Calm,-,N/A,,Clear,0,2012-12-10 16:55:00
9:55 AM,60.8,37.4,42,30.14,25.0,Calm,Calm,-,N/A,,Clear,0,2012-12-10 17:55:00
12:47 PM,77.0,32.0,19,30.07,25.0,Variable,5.8,-,N/A,,Clear,0,2012-12-10 20:47:00
3:47 PM,73.4,30.2,20,30.04,25.0,West,6.9,-,N/A,,Clear,270,2012-12-10 23:47:00
8:15 PM,51.8,37.4,58,30.08,10.0,West,3.5,-,N/A,,Clear,280,2012-12-11 04:15:00
8:35 PM,51.8,39.2,62,30.09,10.0,Calm,Calm,-,N/A,,Clear,0,2012-12-11 04:35:00
8:55 PM,50.0,39.2,66,30.08,10.0,West,3.5,-,N/A,,Clear,280,2012-12-11 04:55:00
9:15 PM,50.0,39.2,66,30.09,10.0,Calm,Calm,-,N/A,,Clear,0,2012-12-11 05:15:00
9:55 PM,48.2,37.4,66,30.09,10.0,Calm,Calm,-,N/A,,Clear,0,2012-12-11 05:55:00
10:15 PM,48.2,37.4,66,30.10,10.0,Calm,Calm,-,N/A,,Clear,0,2012-12-11 06:15:00
10:35 PM,46.4,37.4,71,30.10,10.0,NW,3.5,-,N/A,,Clear,310,2012-12-11 06:35:00
10:55 PM,46.4,37.4,71,30.09,10.0,West,3.5,-,N/A,,Clear,280,2012-12-11 06:55:00
11:15 PM,46.4,37.4,71,30.09,10.0,Calm,Calm,-,N/A,,Clear,0,2012-12-11 07:15:00
11:35 PM,46.4,37.4,71,30.08,10.0,Calm,Calm,-,N/A,,Clear,0,2012-12-11 07:35:00
11:55 PM,44.6,37.4,76,30.09,10.0,Calm,Calm,-,N/A,,Clear,0,2012-12-11 07:55:00